| time (UTC) | temp F | wind direction | speed knots | gust knots | rain 1hr in | rain 24hr in | rain mn in | humidity % | barometer mb |
| 20260503223557 | 62 | 225 | 1.7 | 3.5 | 0.00 | 0.00 | 0.00 | 61 | 1011.8 |
| 20260503223056 | 62 | 228 | 1.7 | 4.3 | 0.00 | 0.00 | 0.00 | 61 | 1011.8 |
| 20260503222558 | 63 | 360 | 1.7 | 4.3 | 0.00 | 0.00 | 0.00 | 60 | 1011.8 |
| 20260503222057 | 63 | 360 | 1.7 | 3.5 | 0.00 | 0.00 | 0.00 | 59 | 1011.7 |
| 20260503221610 | 63 | 360 | 0.0 | 2.6 | 0.00 | 0.00 | 0.00 | 58 | 1011.6 |
| 20260503221057 | 63 | 279 | 0.0 | 5.2 | 0.00 | 0.00 | 0.00 | 58 | 1011.6 |
| 20260503220558 | 63 | 0 | 0.9 | 5.2 | 0.00 | 0.00 | 0.00 | 57 | 1011.5 |
| 20260503220057 | 63 | 262 | 0.9 | 5.2 | 0.00 | 0.00 | 0.00 | 57 | 1011.5 |
| 20260503215557 | 64 | 263 | 0.9 | 5.2 | 0.00 | 0.00 | 0.00 | 57 | 1011.5 |
| 20260503215056 | 64 | 238 | 1.7 | 7.0 | 0.00 | 0.00 | 0.00 | 56 | 1011.6 |
| 20260503214557 | 64 | 246 | 2.6 | 7.0 | 0.00 | 0.00 | 0.00 | 55 | 1011.5 |
| 20260503214057 | 64 | 248 | 3.5 | 7.0 | 0.00 | 0.00 | 0.00 | 55 | 1011.5 |
| 20260503213557 | 64 | 246 | 2.6 | 6.1 | 0.00 | 0.00 | 0.00 | 54 | 1011.5 |
| 20260503213057 | 64 | 275 | 1.7 | 7.8 | 0.00 | 0.00 | 0.00 | 54 | 1011.4 |
| 20260503212557 | 64 | 274 | 4.3 | 8.7 | 0.00 | 0.00 | 0.00 | 54 | 1011.4 |
| 20260503212058 | 64 | 264 | 3.5 | 9.6 | 0.00 | 0.00 | 0.00 | 53 | 1011.4 |
| 20260503211556 | 64 | 288 | 4.3 | 9.6 | 0.00 | 0.00 | 0.00 | 53 | 1011.4 |
| 20260503211057 | 65 | 273 | 4.3 | 9.6 | 0.00 | 0.00 | 0.00 | 53 | 1011.4 |
| 20260503210557 | 65 | 280 | 4.3 | 10.4 | 0.00 | 0.00 | 0.00 | 53 | 1011.3 |
| 20260503210100 | 65 | 268 | 5.2 | 10.4 | 0.00 | 0.00 | 0.00 | 53 | 1011.2 |
| 20260503205559 | 65 | 287 | 5.2 | 10.4 | 0.00 | 0.00 | 0.00 | 53 | 1011.2 |
| 20260503205058 | 65 | 263 | 5.2 | 9.6 | 0.00 | 0.00 | 0.00 | 52 | 1011.2 |
| 20260503204558 | 65 | 266 | 3.5 | 8.7 | 0.00 | 0.00 | 0.00 | 52 | 1011.2 |
| 20260503204056 | 65 | 279 | 4.3 | 8.7 | 0.00 | 0.00 | 0.00 | 51 | 1011.2 |
| 20260503203556 | 65 | 257 | 4.3 | 10.4 | 0.00 | 0.00 | 0.00 | 51 | 1011.2 |
| 20260503203100 | 66 | 285 | 6.1 | 10.4 | 0.00 | 0.00 | 0.00 | 50 | 1011.2 |
| 20260503202556 | 66 | 257 | 6.1 | 11.3 | 0.00 | 0.00 | 0.00 | 50 | 1011.2 |
| 20260503202057 | 66 | 283 | 5.2 | 11.3 | 0.00 | 0.00 | 0.00 | 49 | 1011.3 |
| 20260503201558 | 66 | 272 | 6.1 | 13.0 | 0.00 | 0.00 | 0.00 | 49 | 1011.2 |
| 20260503201059 | 66 | 293 | 6.1 | 13.0 | 0.00 | 0.00 | 0.00 | 47 | 1011.2 |
| 20260503200557 | 66 | 304 | 5.2 | 10.4 | 0.00 | 0.00 | 0.00 | 46 | 1011.2 |
| 20260503200058 | 66 | 269 | 4.3 | 8.7 | 0.00 | 0.00 | 0.00 | 45 | 1011.1 |
| 20260503195600 | 67 | 274 | 3.5 | 7.8 | 0.00 | 0.00 | 0.00 | 43 | 1011.0 |
| 20260503195057 | 67 | 264 | 3.5 | 8.7 | 0.00 | 0.00 | 0.00 | 43 | 1011.0 |
| 20260503194603 | 67 | 267 | 4.3 | 8.7 | 0.00 | 0.00 | 0.00 | 42 | 1010.9 |
| 20260503194057 | 67 | 238 | 3.5 | 8.7 | 0.00 | 0.00 | 0.00 | 41 | 1010.9 |
| 20260503193557 | 67 | 261 | 3.5 | 8.7 | 0.00 | 0.00 | 0.00 | 41 | 1010.8 |
| 20260503193056 | 67 | 251 | 3.5 | 7.0 | 0.00 | 0.00 | 0.00 | 41 | 1010.7 |
| 20260503192556 | 67 | 240 | 2.6 | 7.8 | 0.00 | 0.00 | 0.00 | 41 | 1010.7 |
| 20260503192057 | 68 | 240 | 3.5 | 7.8 | 0.00 | 0.00 | 0.00 | 40 | 1010.7 |
| 20260503191603 | 68 | 228 | 3.5 | 8.7 | 0.00 | 0.00 | 0.00 | 40 | 1010.6 |
| 20260503191058 | 68 | 244 | 4.3 | 8.7 | 0.00 | 0.00 | 0.00 | 39 | 1010.5 |
| 20260503190559 | 69 | 246 | 3.5 | 7.0 | 0.00 | 0.00 | 0.00 | 39 | 1010.5 |
| 20260503190057 | 69 | 238 | 2.6 | 10.4 | 0.00 | 0.00 | 0.00 | 38 | 1010.4 |
| 20260503185558 | 69 | 244 | 3.5 | 11.3 | 0.00 | 0.00 | 0.00 | 38 | 1010.4 |
| 20260503185100 | 69 | 223 | 4.3 | 11.3 | 0.00 | 0.00 | 0.00 | 37 | 1010.3 |
| 20260503184559 | 69 | 232 | 5.2 | 11.3 | 0.00 | 0.00 | 0.00 | 38 | 1010.3 |
| 20260503184057 | 69 | 237 | 4.3 | 10.4 | 0.00 | 0.00 | 0.00 | 37 | 1010.3 |
| 20260503183558 | 69 | 278 | 5.2 | 12.2 | 0.00 | 0.00 | 0.00 | 37 | 1010.2 |
| 20260503183105 | 70 | 181 | 6.1 | 12.2 | 0.00 | 0.00 | 0.00 | 36 | 1010.2 |
| 20260503182556 | 70 | 245 | 4.3 | 14.8 | 0.00 | 0.00 | 0.00 | 37 | 1010.2 |
| 20260503182057 | 70 | 244 | 7.8 | 14.8 | 0.00 | 0.00 | 0.00 | 35 | 1010.1 |
| 20260503181605 | 70 | 238 | 6.1 | 14.8 | 0.00 | 0.00 | 0.00 | 36 | 1010.1 |
| 20260503181056 | 70 | 210 | 5.2 | 14.8 | 0.00 | 0.00 | 0.00 | 36 | 1010.0 |
| 20260503180555 | 70 | 238 | 6.1 | 14.8 | 0.00 | 0.00 | 0.00 | 35 | 1010.0 |
| 20260503180106 | 70 | 260 | 7.0 | 16.5 | 0.00 | 0.00 | 0.00 | 36 | 1010.0 |
| 20260503175556 | 70 | 232 | 6.1 | 16.5 | 0.00 | 0.00 | 0.00 | 36 | 1009.9 |
| 20260503175056 | 70 | 244 | 7.8 | 13.9 | 0.00 | 0.00 | 0.00 | 37 | 1009.9 |
| 20260503174604 | 69 | 219 | 5.2 | 12.2 | 0.00 | 0.00 | 0.00 | 39 | 1009.8 |
| 20260503174056 | 70 | 209 | 4.3 | 8.7 | 0.00 | 0.00 | 0.00 | 41 | 1009.8 |
| 20260503173557 | 70 | 348 | 0.0 | 4.3 | 0.00 | 0.00 | 0.00 | 43 | 1009.8 |
| 20260503173111 | 70 | 190 | 0.9 | 4.3 | 0.00 | 0.00 | 0.00 | 42 | 1009.8 |
| 20260503172558 | 70 | 190 | 1.7 | 4.3 | 0.00 | 0.00 | 0.00 | 42 | 1009.8 |
| 20260503172057 | 70 | 212 | 0.9 | 5.2 | 0.00 | 0.00 | 0.00 | 42 | 1009.8 |
| 20260503171600 | 70 | 217 | 2.6 | 6.1 | 0.00 | 0.00 | 0.00 | 42 | 1009.9 |
| 20260503171056 | 70 | 203 | 1.7 | 7.0 | 0.00 | 0.00 | 0.00 | 42 | 1010.0 |
| 20260503170557 | 71 | 246 | 3.5 | 7.8 | 0.00 | 0.00 | 0.00 | 41 | 1010.0 |
| 20260503150559 | 71 | 175 | 2.6 | 7.0 | 0.00 | 0.00 | 0.00 | 38 | 1010.4 |
| 20260503140108 | 72 | 198 | 2.6 | 5.2 | 0.00 | 0.00 | 0.00 | 40 | 1010.8 |
| 20260503131058 | 70 | 229 | 1.7 | 7.0 | 0.00 | 0.00 | 0.00 | 40 | 1011.3 |
| 20260503130559 | 70 | 205 | 2.6 | 7.8 | 0.00 | 0.00 | 0.00 | 39 | 1011.4 |
| 20260503110556 | 72 | 189 | 5.2 | 13.9 | 0.00 | 0.00 | 0.00 | 40 | 1012.1 |
| 20260503110108 | 72 | 213 | 6.1 | 13.0 | 0.00 | 0.00 | 0.00 | 36 | 1012.2 |
| 20260503081556 | 72 | 0 | 1.7 | 7.0 | 0.00 | 0.00 | 0.00 | 49 | 1012.7 |
| 20260503081056 | 71 | 202 | 2.6 | 7.8 | 0.00 | 0.00 | 0.00 | 48 | 1012.6 |
| 20260503080556 | 71 | 208 | 2.6 | 7.8 | 0.00 | 0.00 | 0.00 | 48 | 1012.6 |
| 20260503072556 | 67 | 0 | 0.9 | 4.3 | 0.00 | 0.00 | 0.00 | 63 | 1012.6 |
| 20260503072057 | 66 | 0 | 0.0 | 4.3 | 0.00 | 0.00 | 0.00 | 64 | 1012.6 |
| 20260503071612 | 66 | 0 | 0.9 | 4.3 | 0.00 | 0.00 | 0.00 | 64 | 1012.6 |
| 20260503071056 | 65 | 0 | 0.0 | 2.6 | 0.00 | 0.00 | 0.00 | 66 | 1012.7 |
| 20260503070601 | 64 | 0 | 0.0 | 0.9 | 0.00 | 0.00 | 0.00 | 67 | 1012.6 |
| 20260503060125 | 58 | 0 | 0.0 | 4.3 | 0.00 | 0.00 | 0.00 | 77 | 1012.6 |
| 20260503055057 | 57 | 169 | 2.6 | 7.0 | 0.00 | 0.00 | 0.00 | 77 | 1012.5 |
| 20260503054601 | 56 | 171 | 2.6 | 7.8 | 0.00 | 0.00 | 0.00 | 78 | 1012.5 |
| 20260503054058 | 56 | 151 | 2.6 | 7.8 | 0.00 | 0.00 | 0.00 | 78 | 1012.5 |
| 20260503053558 | 56 | 179 | 2.6 | 6.1 | 0.00 | 0.00 | 0.00 | 79 | 1012.5 |
| 20260503053058 | 55 | 360 | 2.6 | 5.2 | 0.00 | 0.00 | 0.00 | 79 | 1012.6 |
| 20260503052558 | 55 | 360 | 0.9 | 7.8 | 0.00 | 0.00 | 0.00 | 80 | 1012.6 |
| 20260503052058 | 54 | 360 | 1.7 | 7.8 | 0.00 | 0.00 | 0.00 | 81 | 1012.6 |
| 20260503051555 | 54 | 360 | 1.7 | 7.0 | 0.00 | 0.00 | 0.00 | 82 | 1012.6 |
| 20260503051101 | 54 | 360 | 2.6 | 5.2 | 0.00 | 0.00 | 0.00 | 83 | 1012.7 |
| 20260503050600 | 53 | 360 | 1.7 | 7.0 | 0.00 | 0.00 | 0.00 | 83 | 1012.7 |
| 20260503050057 | 53 | 360 | 1.7 | 7.0 | 0.00 | 0.00 | 0.00 | 84 | 1012.7 |
| 20260503045558 | 53 | 360 | 1.7 | 5.2 | 0.00 | 0.00 | 0.00 | 85 | 1012.7 |
| 20260503045057 | 52 | 360 | 0.9 | 5.2 | 0.00 | 0.00 | 0.00 | 85 | 1012.8 |
| 20260503044558 | 52 | 360 | 2.6 | 5.2 | 0.00 | 0.00 | 0.00 | 86 | 1012.8 |
| 20260503044100 | 52 | 0 | 1.7 | 5.2 | 0.00 | 0.00 | 0.00 | 86 | 1012.8 |
| 20260503043557 | 51 | 360 | 1.7 | 7.0 | 0.00 | 0.00 | 0.00 | 86 | 1012.7 |
| 20260503043059 | 51 | 360 | 1.7 | 7.0 | 0.00 | 0.00 | 0.00 | 86 | 1012.7 |
| 20260503042600 | 51 | 360 | 0.9 | 4.3 | 0.00 | 0.00 | 0.00 | 86 | 1012.8 |
| 20260503042057 | 51 | 0 | 0.0 | 2.6 | 0.00 | 0.00 | 0.00 | 86 | 1012.8 |
| 20260503041555 | 51 | 0 | 0.0 | 1.7 | 0.00 | 0.00 | 0.00 | 85 | 1012.8 |
| 20260503041058 | 51 | 0 | 0.0 | 2.6 | 0.00 | 0.00 | 0.00 | 85 | 1012.9 |
| 20260503040559 | 51 | 360 | 0.0 | 2.6 | 0.00 | 0.00 | 0.00 | 85 | 1012.9 |
| 20260503040113 | 51 | 0 | 0.0 | 0.0 | 0.00 | 0.00 | 0.00 | 84 | 1013.0 |
| 20260503035558 | 51 | 0 | 0.0 | 2.6 | 0.00 | 0.00 | 0.00 | 83 | 1013.0 |
| 20260503035058 | 51 | 0 | 0.0 | 2.6 | 0.00 | 0.00 | 0.00 | 83 | 1013.1 |
| 20260503034557 | 51 | 360 | 0.0 | 2.6 | 0.00 | 0.00 | 0.00 | 82 | 1013.1 |
| 20260503034058 | 52 | 360 | 0.9 | 1.7 | 0.00 | 0.00 | 0.00 | 82 | 1013.0 |
| 20260503033557 | 52 | 0 | 0.0 | 0.0 | 0.00 | 0.00 | 0.00 | 82 | 1013.0 |
| 20260503033112 | 52 | 0 | 0.0 | 0.0 | 0.00 | 0.00 | 0.00 | 82 | 1013.1 |
| 20260503032557 | 52 | 0 | 0.0 | 0.0 | 0.00 | 0.00 | 0.00 | 82 | 1013.0 |
| 20260503032058 | 52 | 0 | 0.0 | 0.0 | 0.00 | 0.00 | 0.00 | 82 | 1013.1 |
| 20260503031607 | 52 | 0 | 0.0 | 0.0 | 0.00 | 0.00 | 0.00 | 82 | 1013.1 |
| 20260503031058 | 52 | 0 | 0.0 | 0.0 | 0.00 | 0.00 | 0.00 | 82 | 1013.0 |
| 20260503030556 | 52 | 0 | 0.0 | 2.6 | 0.00 | 0.00 | 0.00 | 81 | 1013.1 |
| 20260503030107 | 53 | 0 | 0.0 | 2.6 | 0.00 | 0.00 | 0.00 | 80 | 1013.1 |
| 20260503025557 | 53 | 360 | 0.0 | 2.6 | 0.00 | 0.00 | 0.00 | 79 | 1013.2 |
| 20260503025056 | 53 | 360 | 0.0 | 2.6 | 0.00 | 0.00 | 0.00 | 79 | 1013.3 |
| 20260503024600 | 53 | 360 | 0.0 | 2.6 | 0.00 | 0.00 | 0.00 | 78 | 1013.3 |
| 20260503024100 | 53 | 0 | 0.0 | 2.6 | 0.00 | 0.00 | 0.00 | 78 | 1013.3 |
| 20260503023556 | 54 | 360 | 0.9 | 2.6 | 0.00 | 0.00 | 0.00 | 78 | 1013.3 |
| 20260503023102 | 54 | 360 | 0.9 | 2.6 | 0.00 | 0.00 | 0.00 | 78 | 1013.3 |
| 20260503022555 | 54 | 0 | 0.0 | 2.6 | 0.00 | 0.00 | 0.00 | 78 | 1013.4 |
| 20260503022059 | 54 | 0 | 0.9 | 3.5 | 0.00 | 0.00 | 0.00 | 77 | 1013.5 |
| 20260503021604 | 54 | 360 | 1.7 | 3.5 | 0.00 | 0.00 | 0.00 | 77 | 1013.4 |
| 20260503021055 | 55 | 0 | 0.0 | 2.6 | 0.00 | 0.00 | 0.00 | 76 | 1013.4 |
| 20260503020555 | 55 | 360 | 1.7 | 2.6 | 0.00 | 0.00 | 0.00 | 75 | 1013.5 |
| 20260503020058 | 55 | 0 | 0.0 | 1.7 | 0.00 | 0.00 | 0.00 | 74 | 1013.5 |
| 20260503015555 | 56 | 0 | 0.0 | 0.0 | 0.00 | 0.00 | 0.00 | 74 | 1013.6 |
| 20260503015056 | 56 | 0 | 0.0 | 0.0 | 0.00 | 0.00 | 0.00 | 75 | 1013.5 |
| 20260503014611 | 56 | 0 | 0.0 | 0.0 | 0.00 | 0.00 | 0.00 | 74 | 1013.6 |
| 20260503014056 | 56 | 0 | 0.0 | 0.0 | 0.00 | 0.00 | 0.00 | 74 | 1013.6 |
| 20260503013556 | 56 | 0 | 0.0 | 2.6 | 0.00 | 0.00 | 0.00 | 74 | 1013.6 |
| 20260503013058 | 56 | 0 | 0.0 | 4.3 | 0.00 | 0.00 | 0.00 | 73 | 1013.6 |
| 20260503012556 | 57 | 360 | 0.9 | 4.3 | 0.00 | 0.00 | 0.00 | 73 | 1013.7 |
| 20260503012058 | 57 | 360 | 1.7 | 4.3 | 0.00 | 0.00 | 0.00 | 73 | 1013.8 |
| 20260503011600 | 57 | 360 | 0.9 | 2.6 | 0.00 | 0.00 | 0.00 | 73 | 1013.7 |
| 20260503011055 | 57 | 360 | 0.9 | 3.5 | 0.00 | 0.00 | 0.00 | 73 | 1013.7 |
| 20260503010555 | 57 | 360 | 0.0 | 4.3 | 0.00 | 0.00 | 0.00 | 72 | 1013.8 |
| 20260503010058 | 57 | 360 | 1.7 | 4.3 | 0.00 | 0.00 | 0.00 | 72 | 1013.9 |
| 20260503005556 | 57 | 360 | 1.7 | 4.3 | 0.00 | 0.00 | 0.00 | 71 | 1014.0 |
| 20260503005056 | 57 | 360 | 1.7 | 5.2 | 0.00 | 0.00 | 0.00 | 70 | 1014.1 |
| 20260503004602 | 57 | 360 | 1.7 | 5.2 | 0.00 | 0.00 | 0.00 | 69 | 1014.2 |
| 20260503004059 | 57 | 360 | 2.6 | 7.0 | 0.00 | 0.00 | 0.00 | 68 | 1014.3 |
| 20260503003558 | 57 | 360 | 2.6 | 7.8 | 0.00 | 0.00 | 0.00 | 67 | 1014.3 |
| 20260503003106 | 57 | 360 | 2.6 | 10.4 | 0.00 | 0.00 | 0.00 | 65 | 1014.3 |
| 20260503002558 | 57 | 360 | 2.6 | 10.4 | 0.00 | 0.00 | 0.00 | 65 | 1014.3 |
| 20260503002056 | 57 | 360 | 2.6 | 10.4 | 0.00 | 0.00 | 0.00 | 63 | 1014.5 |
| 20260503001606 | 57 | 360 | 1.7 | 5.2 | 0.00 | 0.00 | 0.00 | 62 | 1014.3 |
| 20260503001055 | 57 | 360 | 0.9 | 12.2 | 0.00 | 0.00 | 0.00 | 61 | 1014.4 |
| 20260503000559 | 58 | 360 | 2.6 | 12.2 | 0.00 | 0.00 | 0.00 | 61 | 1014.4 |
| 20260503000055 | 58 | 360 | 0.9 | 3.5 | 0.00 | 0.00 | 0.00 | 59 | 1014.5 |
| 20260502235556 | 59 | 360 | 0.9 | 3.5 | 0.00 | 0.00 | 0.00 | 56 | 1014.0 |
| 20260502235056 | 59 | 186 | 0.9 | 3.5 | 0.00 | 0.00 | 0.00 | 56 | 1014.0 |
| 20260502234556 | 59 | 186 | 1.7 | 4.3 | 0.00 | 0.00 | 0.00 | 56 | 1014.0 |
| 20260502234056 | 59 | 186 | 1.7 | 5.2 | 0.00 | 0.00 | 0.00 | 55 | 1014.1 |
| 20260502233556 | 59 | 180 | 2.6 | 7.0 | 0.00 | 0.00 | 0.00 | 55 | 1014.1 |
| 20260502233057 | 59 | 360 | 3.5 | 7.0 | 0.00 | 0.00 | 0.00 | 55 | 1014.1 |
| 20260502232559 | 59 | 170 | 2.6 | 7.0 | 0.00 | 0.00 | 0.00 | 56 | 1014.1 |
| 20260502232056 | 59 | 178 | 2.6 | 7.0 | 0.00 | 0.00 | 0.00 | 55 | 1014.1 |
| 20260502231600 | 60 | 360 | 3.5 | 7.0 | 0.00 | 0.00 | 0.00 | 55 | 1014.1 |
| 20260502231057 | 60 | 360 | 3.5 | 7.0 | 0.00 | 0.00 | 0.00 | 55 | 1014.1 |
| 20260502230557 | 60 | 159 | 3.5 | 7.0 | 0.00 | 0.00 | 0.00 | 55 | 1014.1 |
| 20260502230058 | 60 | 360 | 3.5 | 7.0 | 0.00 | 0.00 | 0.00 | 55 | 1014.1 |
| 20260502225555 | 60 | 360 | 2.6 | 7.0 | 0.00 | 0.00 | 0.00 | 55 | 1014.1 |
| 20260502225057 | 60 | 360 | 2.6 | 7.0 | 0.00 | 0.00 | 0.00 | 55 | 1014.2 |
| 20260502224604 | 60 | 360 | 3.5 | 7.8 | 0.00 | 0.00 | 0.00 | 55 | 1014.2 |
| 20260502224056 | 60 | 360 | 3.5 | 7.8 | 0.00 | 0.00 | 0.00 | 55 | 1014.2 |